Tenerife, El Salvador

10:08 PM WET en Diciembre 18, 2018 (GMT +0000)
Tenerife

Tiempo Historia de GCXO - Diciembre, 2018

Change the Weather History Date:

Jueves, Diciembre 6, 2018

  Actual Average Record
Temperature  
Temperatura media 62 ° F -  
Temperatura máxima 66 ° F 60 ° F 68 ° F (1999)
Temperatura mínima 57 ° F 51 ° F 49 ° F (2014)
Degree Days  
Grados día de calefacción 4    
Growing Degree Days 12 (Base 50)    
Moisture  
Punto de rocío 51 ° F    
Average Humidity 68    
Maximum Humidity 82    
Minimum Humidity 31    
Precipitación  
Precipitación 0.00 pul - - ()
Presión al nivel del mar  
Presión al nivel del mar 30.21 pul    
Viento  
Velocidad del viento 9 mph ()    
Velocidad máxima del viento 14 mph    
Max Gust Speed 22 mph    
Visibilidad 7.6 Millas    
Eventos      
Averages and records for this station are not official NWS values.
T = Trace of Precipitation, MM = Missing Value Source: Averaged Metar Reports

Daily Weather History Graph

Daily Weather History Graph

Search for Another Location

Airport or City:

Astronomía

Dec. 06, 2018 Salida Puesta
Hora real 7:43 AM WET 6:08 PM WET
Crepúsculo civil 7:18 AM WET 6:34 PM WET
Crepúsculo náutico 6:49 AM WET 7:03 PM WET
Crepúsculo astronómico 6:20 AM WET 7:32 PM WET
Luna 6:46 AM WET (12/6) 5:50 PM WET (12/6)
Horas de luz 11h 16m
Horas de luz
10h 24m
Creciente menguante, 1% of the Moon is Illuminated
Dic 6
Creciente menguante
Dic 7
Nueva
Dic 15
Cuarto creciente
Dic 22
Luna llena
Dic 29
Cuarto menguante

Hourly Weather History & Observations

Hora (WET) Temp. Punto de rocío Humedad Presión Visibilidad Wind Dir Velocidad del viento Velocidad de ráfagas Precip Eventos Condiciones
12:00 AM 60.8 ° F 46.4 ° F 59% 30.18 pul - SE 13.8 mph - N/A   Despejado
12:30 AM 60.8 ° F 46.4 ° F 59% 30.18 pul - SSE 10.4 mph - N/A   Despejado
1:00 AM 60.8 ° F 44.6 ° F 55% 30.18 pul 6.2 mi SE 11.5 mph - N/A   Desconocido
1:30 AM 60.8 ° F 46.4 ° F 59% 30.18 pul - SE 11.5 mph - N/A   Despejado
2:00 AM 60.8 ° F 48.2 ° F 63% 30.18 pul - SE 10.4 mph 21.9 mph N/A   Despejado
2:30 AM 60.8 ° F 50.0 ° F 68% 30.18 pul 6.2 mi ESE 10.4 mph - N/A   Desconocido
3:30 AM 59.0 ° F 50.0 ° F 72% 30.18 pul 6.2 mi ESE 10.4 mph - N/A   Desconocido
4:00 AM 59.0 ° F 50.0 ° F 72% 30.18 pul 6.2 mi ESE 9.2 mph - N/A   Desconocido
4:30 AM 57.2 ° F 50.0 ° F 77% 30.18 pul 6.2 mi ESE 10.4 mph - N/A   Desconocido
5:00 AM 59.0 ° F 51.8 ° F 77% 30.15 pul 6.2 mi ESE 9.2 mph - N/A   Desconocido
5:30 AM 59.0 ° F 51.8 ° F 77% 30.15 pul 6.2 mi SE 8.1 mph - N/A   Desconocido
6:00 AM 59.0 ° F 53.6 ° F 82% 30.15 pul - SE 6.9 mph - N/A   Despejado
6:30 AM 59.0 ° F 53.6 ° F 82% 30.15 pul - SE 8.1 mph - N/A   Despejado
7:00 AM 59.0 ° F 53.6 ° F 82% 30.18 pul - SE 8.1 mph - N/A   Despejado
7:30 AM 59.0 ° F 53.6 ° F 82% 30.18 pul - SE 8.1 mph - N/A   Despejado
8:00 AM 59.0 ° F 53.6 ° F 82% 30.18 pul - SE 8.1 mph - N/A   Despejado
8:30 AM 60.8 ° F 55.4 ° F 82% 30.21 pul - SE 8.1 mph - N/A   Despejado
9:00 AM 62 ° F 57 ° F 78% 30.18 pul 9 mi ESE 10.4 mph - -   Despejado
9:00 AM 60.8 ° F 55.4 ° F 82% 30.21 pul - ESE 9.2 mph - N/A   Despejado
9:30 AM 62.6 ° F 57.2 ° F 82% 30.24 pul - ESE 11.5 mph - N/A   Despejado
10:00 AM 62.6 ° F 57.2 ° F 82% 30.24 pul - ESE 11.5 mph - N/A   Despejado
10:30 AM 64.4 ° F 57.2 ° F 77% 30.24 pul - ESE 11.5 mph - N/A   Despejado
11:00 AM 62.6 ° F 55.4 ° F 77% 30.27 pul - ESE 10.4 mph - N/A   Despejado
11:30 AM 62.6 ° F 55.4 ° F 77% 30.27 pul - ESE 9.2 mph - N/A   Despejado
12:00 PM 65 ° F 56 ° F 65% 30.19 pul 14 mi Este 10.4 mph - -   Despejado
12:00 PM 66.2 ° F 57.2 ° F 73% 30.24 pul - Este 9.2 mph - N/A   Despejado
12:30 PM 64.4 ° F 53.6 ° F 68% 30.24 pul - ESE 10.4 mph - N/A   Despejado
1:00 PM 64.4 ° F 55.4 ° F 73% 30.21 pul - ESE 8.1 mph - N/A   Despejado
1:30 PM 62.6 ° F 55.4 ° F 77% 30.21 pul - ESE 8.1 mph - N/A   Despejado
2:00 PM 64.4 ° F 53.6 ° F 68% 30.21 pul - ESE 8.1 mph - N/A   Despejado
2:30 PM 64.4 ° F 55.4 ° F 73% 30.18 pul - ESE 9.2 mph - N/A   Despejado
3:00 PM 64.4 ° F 55.4 ° F 73% 30.18 pul - ESE 9.2 mph - N/A   Despejado
4:00 PM 64.4 ° F 53.6 ° F 68% 30.21 pul - ESE 6.9 mph - N/A   Despejado
4:30 PM 62.6 ° F 53.6 ° F 72% 30.21 pul - ESE 5.8 mph - N/A   Despejado
5:00 PM 62.6 ° F 55.4 ° F 77% 30.21 pul - SE 4.6 mph - N/A   Despejado
5:30 PM 60.8 ° F 53.6 ° F 77% 30.21 pul - ESE 5.8 mph - N/A   Despejado
6:00 PM 61 ° F 54 ° F 70% 30.19 pul 10 mi SSE 5.8 mph - -   Muy nublado
6:00 PM 60.8 ° F 53.6 ° F 77% 30.21 pul - SSE 4.6 mph - N/A   Despejado
7:00 PM 59.0 ° F 51.8 ° F 77% 30.24 pul - SSE 6.9 mph - N/A   Despejado
7:30 PM 60.8 ° F 48.2 ° F 63% 30.24 pul - SE 6.9 mph - N/A   Despejado
8:00 PM 60.8 ° F 44.6 ° F 55% 30.27 pul - SE 5.8 mph - N/A   Despejado
8:30 PM 60.8 ° F 41.0 ° F 48% 30.27 pul - SSE 6.9 mph - N/A   Despejado
9:00 PM 62 ° F 39 ° F 31% 30.25 pul 7 mi SE 6.9 mph - -  
9:00 PM 62.6 ° F 35.6 ° F 37% 30.27 pul - SSE 5.8 mph - N/A   Despejado
9:30 PM 62.6 ° F 37.4 ° F 39% 30.27 pul - SE 5.8 mph - N/A   Despejado
10:00 PM 60.8 ° F 41.0 ° F 48% 30.30 pul - SSE 6.9 mph - N/A   Despejado
10:30 PM 60.8 ° F 44.6 ° F 55% 30.30 pul - SSE 9.2 mph - N/A   Despejado
11:00 PM 62.6 ° F 44.6 ° F 52% 30.30 pul - SE 9.2 mph - N/A   Despejado
11:30 PM 62.6 ° F 46.4 ° F 55% 30.30 pul - SSE 9.2 mph - N/A   Despejado